This is the latest recevied weather packets stored in our database for station/object W1RCY. If no packets are shown the sender has not sent any weather packets the latest 10 day(s).
| Time | Temp. | Humidity | Pressure | Rain* | Wind** | Luminosity | Snow |
|---|---|---|---|---|---|---|---|
| 1777300414 | 17.22° C | 47% | 1023.9 hPa | 0 mm | - | 363 W/m² | - |
| 1777300112 | 16.67° C | 46% | 1023.9 hPa | 0 mm | - | 301 W/m² | - |
| 1777299807 | 17.22° C | 49% | 1023.9 hPa | 0 mm | - | 233 W/m² | - |
| 1777299505 | 16.11° C | 49% | 1023.9 hPa | 0 mm | - | 222 W/m² | - |
| 1777299203 | 16.67° C | 49% | 1024.1 hPa | 0 mm | - | 557 W/m² | - |
| 1777298900 | 16.67° C | 49% | 1023.8 hPa | 0 mm | - | 392 W/m² | - |
| 1777298597 | 16.67° C | 49% | 1024 hPa | 0 mm | - | 432 W/m² | - |
| 1777298293 | 16.11° C | 50% | 1024 hPa | 0 mm | - | 167 W/m² | - |
| 1777297988 | 15.56° C | 52% | 1023.9 hPa | 0 mm | - | 269 W/m² | - |
| 1777297684 | 15° C | 52% | 1024 hPa | 0 mm | - | 120 W/m² | - |
| 1777297383 | 15° C | 51% | 1024 hPa | 0 mm | - | 202 W/m² | - |
| 1777297079 | 15° C | 52% | 1023.9 hPa | 0 mm | - | 337 W/m² | - |
| 1777296776 | 15° C | 53% | 1023.9 hPa | 0 mm | - | 138 W/m² | - |
| 1777296471 | 14.44° C | 54% | 1024 hPa | 0 mm | - | 373 W/m² | - |
| 1777296168 | 14.44° C | 53% | 1024 hPa | 0 mm | - | 222 W/m² | - |
| 1777295864 | 14.44° C | 54% | 1023.8 hPa | 0 mm | - | 291 W/m² | - |
| 1777295562 | 13.89° C | 55% | 1023.9 hPa | 0 mm | - | 225 W/m² | - |
| 1777295259 | 13.89° C | 55% | 1023.8 hPa | 0 mm | - | 392 W/m² | - |
| 1777294957 | 13.33° C | 58% | 1023.8 hPa | 0 mm | - | 296 W/m² | - |
| 1777294652 | 13.33° C | 57% | 1023.7 hPa | 0 mm | - | 119 W/m² | - |
| 1777294348 | 12.78° C | 59% | 1023.8 hPa | 0 mm | - | 371 W/m² | - |
| 1777294045 | 12.78° C | 60% | 1023.6 hPa | 0 mm | - | 265 W/m² | - |
| 1777293743 | 12.78° C | 62% | 1023.6 hPa | 0 mm | - | 171 W/m² | - |
| 1777293436 | 12.78° C | 62% | 1023.6 hPa | 0 mm | - | 164 W/m² | - |
| 1777293133 | 12.22° C | 64% | 1023.8 hPa | 0 mm | - | 201 W/m² | - |
* Rain latest hour (hover to see other rain measurements)
** Current wind speed in m/s (hover to see current wind gust speed)